Time,TemperatureF,DewpointF,PressureIn,WindDirection,WindDirectionDegrees,WindSpeedMPH,WindSpeedGustMPH,Humidity,HourlyPrecipIn,Conditions,Clouds,dailyrainin,SoftwareType,DateUTC
2013-02-20 00:00:00,34.5,32.9,28.95,East,83,0.0,4.0,94,0.00,,,0.05,meteohub,2013-02-20 05:00:00,
2013-02-20 00:01:00,34.5,32.9,28.95,West,278,1.0,4.0,94,0.00,,,0.05,meteohub,2013-02-20 05:01:00,
2013-02-20 00:02:00,34.5,32.9,28.95,West,278,0.0,4.0,94,0.00,,,0.05,meteohub,2013-02-20 05:02:00,
2013-02-20 00:07:00,34.3,32.5,28.95,NE,51,2.0,8.0,93,0.00,,,0.05,meteohub,2013-02-20 05:07:00,
2013-02-20 00:09:00,34.3,32.5,28.95,WNW,288,2.0,8.0,93,0.00,,,0.05,meteohub,2013-02-20 05:09:00,
2013-02-20 00:14:00,34.2,32.0,28.95,NNW,346,2.0,8.0,92,0.00,,,0.05,meteohub,2013-02-20 05:14:00,
2013-02-20 00:19:00,34.0,32.2,28.95,West,260,1.0,8.0,93,0.00,,,0.05,meteohub,2013-02-20 05:19:00,
2013-02-20 00:24:00,33.8,32.0,28.95,NW,314,1.0,4.0,93,0.00,,,0.05,meteohub,2013-02-20 05:24:00,
2013-02-20 00:29:00,33.6,31.5,28.95,NNW,347,1.0,3.0,92,0.00,,,0.05,meteohub,2013-02-20 05:29:00,
2013-02-20 00:34:00,33.3,31.1,28.95,East,94,2.0,5.0,92,0.00,,,0.05,meteohub,2013-02-20 05:34:00,
2013-02-20 00:39:00,33.3,30.9,28.95,WNW,300,1.0,5.0,91,0.00,,,0.05,meteohub,2013-02-20 05:39:00,
2013-02-20 00:44:00,33.3,30.9,28.95,SE,136,0.0,5.0,91,0.00,,,0.05,meteohub,2013-02-20 05:44:00,
2013-02-20 00:49:00,32.9,30.6,28.95,NE,43,2.0,5.0,91,0.00,,,0.05,meteohub,2013-02-20 05:49:00,
2013-02-20 00:54:00,32.7,30.4,28.95,WNW,295,0.0,5.0,91,0.00,,,0.05,meteohub,2013-02-20 05:54:00,
2013-02-20 00:59:00,32.5,30.2,28.95,West,263,0.0,3.0,91,0.00,,,0.05,meteohub,2013-02-20 05:59:00,
2013-02-20 01:05:00,32.5,30.0,28.95,NW,319,0.0,3.0,90,0.00,,,0.05,meteohub,2013-02-20 06:05:00,
2013-02-20 01:10:00,32.4,29.8,28.95,NNE,32,0.0,4.0,90,0.00,,,0.05,meteohub,2013-02-20 06:10:00,
2013-02-20 01:15:00,32.4,29.8,28.95,NE,39,1.0,4.0,90,0.00,,,0.05,meteohub,2013-02-20 06:15:00,
2013-02-20 01:20:00,32.2,29.7,28.95,NW,306,3.0,4.0,90,0.00,,,0.05,meteohub,2013-02-20 06:20:00,
2013-02-20 01:25:00,32.4,29.1,28.95,NW,311,1.0,4.0,88,0.00,,,0.05,meteohub,2013-02-20 06:25:00,
2013-02-20 01:30:00,32.4,28.9,28.95,WNW,292,1.0,4.0,87,0.00,,,0.05,meteohub,2013-02-20 06:30:00,
2013-02-20 01:35:00,32.4,28.6,28.96,NW,321,1.0,4.0,86,0.00,,,0.05,meteohub,2013-02-20 06:35:00,
2013-02-20 01:40:00,32.5,28.2,28.96,NNE,13,2.0,4.0,84,0.00,,,0.05,meteohub,2013-02-20 06:40:00,
2013-02-20 01:45:00,32.5,28.0,28.96,WSW,256,1.0,4.0,83,0.00,,,0.05,meteohub,2013-02-20 06:45:00,
2013-02-20 01:50:00,32.7,28.4,28.96,West,281,1.0,4.0,84,0.00,,,0.05,meteohub,2013-02-20 06:50:00,
2013-02-20 01:56:00,32.5,28.2,28.97,WNW,282,1.0,4.0,84,0.00,,,0.05,meteohub,2013-02-20 06:56:00,
2013-02-20 02:01:00,32.5,28.6,28.97,SE,129,0.0,3.0,85,0.00,,,0.05,meteohub,2013-02-20 07:01:00,
2013-02-20 02:06:00,32.4,28.0,28.97,East,99,1.0,3.0,84,0.00,,,0.05,meteohub,2013-02-20 07:06:00,
2013-02-20 02:11:00,32.4,28.0,28.97,West,279,1.0,3.0,84,0.00,,,0.05,meteohub,2013-02-20 07:11:00,
2013-02-20 02:16:00,32.4,28.4,28.97,WNW,283,0.0,3.0,85,0.00,,,0.05,meteohub,2013-02-20 07:16:00,
2013-02-20 02:21:00,32.2,28.2,28.97,SW,216,0.0,3.0,85,0.00,,,0.05,meteohub,2013-02-20 07:21:00,
2013-02-20 02:26:00,32.2,27.7,28.97,NE,44,0.0,3.0,83,0.00,,,0.05,meteohub,2013-02-20 07:26:00,
2013-02-20 02:31:00,32.0,27.5,28.97,NNW,344,0.0,5.0,83,0.00,,,0.05,meteohub,2013-02-20 07:31:00,
2013-02-20 02:36:00,32.0,27.1,28.97,West,276,0.0,5.0,82,0.00,,,0.05,meteohub,2013-02-20 07:36:00,
2013-02-20 02:41:00,31.8,27.0,28.97,NE,39,0.0,5.0,82,0.00,,,0.05,meteohub,2013-02-20 07:41:00,
2013-02-20 02:46:00,31.8,27.0,28.97,SSE,163,0.0,3.0,82,0.00,,,0.05,meteohub,2013-02-20 07:46:00,
2013-02-20 02:51:00,31.6,26.8,28.97,WNW,298,0.0,4.0,82,0.00,,,0.05,meteohub,2013-02-20 07:51:00,
2013-02-20 02:56:00,31.6,26.8,28.97,SSE,150,1.0,4.0,82,0.00,,,0.05,meteohub,2013-02-20 07:56:00,
2013-02-20 03:05:00,31.5,26.2,28.97,WSW,238,0.0,4.0,81,0.00,,,0.05,meteohub,2013-02-20 08:05:00,
2013-02-20 03:10:00,31.5,26.6,28.97,North,1,0.0,4.0,82,0.00,,,0.05,meteohub,2013-02-20 08:10:00,
2013-02-20 03:15:00,31.3,26.4,28.97,East,92,1.0,4.0,82,0.00,,,0.05,meteohub,2013-02-20 08:15:00,
2013-02-20 03:20:00,30.9,26.6,28.97,NNE,29,0.0,2.0,84,0.00,,,0.05,meteohub,2013-02-20 08:20:00,
2013-02-20 03:25:00,30.9,26.6,28.97,NE,54,0.0,2.0,84,0.00,,,0.05,meteohub,2013-02-20 08:25:00,
2013-02-20 03:30:00,30.7,26.4,28.97,WNW,285,1.0,2.0,84,0.00,,,0.05,meteohub,2013-02-20 08:30:00,
2013-02-20 03:35:00,30.7,26.4,28.97,SW,226,0.0,2.0,84,0.00,,,0.05,meteohub,2013-02-20 08:35:00,
2013-02-20 03:40:00,30.7,26.4,28.97,SW,232,0.0,2.0,84,0.00,,,0.05,meteohub,2013-02-20 08:40:00,
2013-02-20 03:45:00,30.7,26.2,28.97,NNW,346,1.0,2.0,83,0.00,,,0.05,meteohub,2013-02-20 08:45:00,
2013-02-20 03:51:00,30.7,25.9,28.97,NE,39,1.0,3.0,82,0.00,,,0.05,meteohub,2013-02-20 08:51:00,
2013-02-20 03:56:00,30.7,26.2,28.97,WNW,293,0.0,3.0,83,0.00,,,0.05,meteohub,2013-02-20 08:56:00,
2013-02-20 04:01:00,30.7,25.5,28.97,WNW,290,0.0,4.0,81,0.00,,,0.05,meteohub,2013-02-20 09:01:00,
2013-02-20 04:06:00,30.7,25.9,28.98,West,260,0.0,4.0,82,0.00,,,0.05,meteohub,2013-02-20 09:06:00,
2013-02-20 04:11:00,30.6,25.7,28.98,South,176,0.0,4.0,82,0.00,,,0.05,meteohub,2013-02-20 09:11:00,
2013-02-20 04:16:00,30.6,25.2,28.98,ESE,120,0.0,3.0,80,0.00,,,0.05,meteohub,2013-02-20 09:16:00,
2013-02-20 04:21:00,30.6,24.8,28.98,North,356,1.0,4.0,79,0.00,,,0.05,meteohub,2013-02-20 09:21:00,
2013-02-20 04:26:00,30.6,24.8,28.98,ENE,58,0.0,4.0,79,0.00,,,0.05,meteohub,2013-02-20 09:26:00,
2013-02-20 04:31:00,30.4,24.1,28.98,North,358,2.0,4.0,77,0.00,,,0.05,meteohub,2013-02-20 09:31:00,
2013-02-20 04:36:00,30.2,23.9,28.99,ENE,75,2.0,5.0,77,0.00,,,0.05,meteohub,2013-02-20 09:36:00,
2013-02-20 04:41:00,30.0,23.4,28.99,SW,225,0.0,5.0,76,0.00,,,0.05,meteohub,2013-02-20 09:41:00,
2013-02-20 04:46:00,29.7,23.0,28.99,North,9,1.0,5.0,76,0.00,,,0.05,meteohub,2013-02-20 09:46:00,
2013-02-20 04:51:00,29.7,22.6,28.99,ENE,68,1.0,3.0,75,0.00,,,0.05,meteohub,2013-02-20 09:51:00,
2013-02-20 04:56:00,29.5,22.5,29.00,WSW,245,1.0,6.0,75,0.00,,,0.05,meteohub,2013-02-20 09:56:00,
2013-02-20 05:01:00,29.3,22.3,29.00,ESE,102,1.0,6.0,75,0.00,,,0.05,meteohub,2013-02-20 10:01:00,
2013-02-20 05:07:00,29.1,22.5,29.00,South,169,0.0,3.0,76,0.00,,,0.05,meteohub,2013-02-20 10:07:00,
2013-02-20 05:12:00,29.1,22.3,29.00,North,5,2.0,3.0,75,0.00,,,0.05,meteohub,2013-02-20 10:12:00,
2013-02-20 05:17:00,29.1,22.3,29.00,West,259,0.0,3.0,75,0.00,,,0.05,meteohub,2013-02-20 10:17:00,
2013-02-20 05:22:00,29.1,21.9,29.01,East,79,0.0,3.0,74,0.00,,,0.05,meteohub,2013-02-20 10:22:00,
2013-02-20 05:27:00,29.1,22.3,29.01,NNE,12,2.0,4.0,75,0.00,,,0.05,meteohub,2013-02-20 10:27:00,
2013-02-20 05:32:00,29.1,22.3,29.02,WSW,257,1.0,7.0,75,0.00,,,0.05,meteohub,2013-02-20 10:32:00,
2013-02-20 05:37:00,29.1,22.3,29.02,ENE,62,1.0,7.0,75,0.00,,,0.05,meteohub,2013-02-20 10:37:00,
2013-02-20 05:42:00,28.9,21.7,29.02,WSW,243,1.0,7.0,74,0.00,,,0.05,meteohub,2013-02-20 10:42:00,
2013-02-20 05:47:00,28.6,21.4,29.02,WSW,240,0.0,4.0,74,0.00,,,0.05,meteohub,2013-02-20 10:47:00,
2013-02-20 05:52:00,28.2,21.0,29.02,WSW,242,0.0,3.0,74,0.00,,,0.05,meteohub,2013-02-20 10:52:00,
2013-02-20 05:57:00,28.0,21.4,29.03,WSW,252,0.0,3.0,76,0.00,,,0.05,meteohub,2013-02-20 10:57:00,
2013-02-20 06:02:00,28.0,21.4,29.03,WNW,288,1.0,3.0,76,0.00,,,0.05,meteohub,2013-02-20 11:02:00,
2013-02-20 06:07:00,28.0,21.2,29.03,NW,305,0.0,4.0,75,0.00,,,0.05,meteohub,2013-02-20 11:07:00,
2013-02-20 06:12:00,28.0,21.2,29.03,NW,316,0.0,4.0,75,0.00,,,0.05,meteohub,2013-02-20 11:12:00,
2013-02-20 06:17:00,28.0,20.8,29.03,NW,316,0.0,4.0,74,0.00,,,0.05,meteohub,2013-02-20 11:17:00,
2013-02-20 06:22:00,27.9,20.7,29.03,SSW,211,1.0,4.0,74,0.00,,,0.05,meteohub,2013-02-20 11:22:00,
2013-02-20 06:27:00,27.7,20.5,29.03,SW,224,1.0,1.0,74,0.00,,,0.05,meteohub,2013-02-20 11:27:00,
2013-02-20 06:32:00,27.3,19.6,29.04,SW,219,0.0,3.0,72,0.00,,,0.05,meteohub,2013-02-20 11:32:00,
2013-02-20 06:37:00,27.1,18.7,29.04,NW,325,1.0,3.0,70,0.00,,,0.05,meteohub,2013-02-20 11:37:00,
2013-02-20 06:42:00,27.0,18.5,29.05,WNW,285,1.0,3.0,70,0.00,,,0.05,meteohub,2013-02-20 11:42:00,
2013-02-20 06:47:00,26.8,18.3,29.05,SE,127,0.0,3.0,70,0.00,,,0.05,meteohub,2013-02-20 11:47:00,
2013-02-20 06:52:00,26.4,18.3,29.05,SE,131,0.0,3.0,71,0.00,,,0.05,meteohub,2013-02-20 11:52:00,
2013-02-20 06:57:00,26.2,17.8,29.05,West,269,1.0,3.0,70,0.00,,,0.05,meteohub,2013-02-20 11:57:00,
2013-02-20 07:02:00,26.1,17.6,29.05,WNW,293,0.0,3.0,70,0.00,,,0.05,meteohub,2013-02-20 12:02:00,
2013-02-20 07:07:00,25.9,18.1,29.05,SE,135,0.0,3.0,72,0.00,,,0.05,meteohub,2013-02-20 12:07:00,
2013-02-20 07:12:00,25.9,17.1,29.05,East,98,0.0,6.0,69,0.00,,,0.05,meteohub,2013-02-20 12:12:00,
2013-02-20 07:17:00,25.9,16.7,29.05,NNW,342,0.0,6.0,68,0.00,,,0.05,meteohub,2013-02-20 12:17:00,
2013-02-20 07:22:00,25.9,17.1,29.06,ENE,70,1.0,4.0,69,0.00,,,0.05,meteohub,2013-02-20 12:22:00,
2013-02-20 07:27:00,25.9,17.1,29.06,SW,225,0.0,4.0,69,0.00,,,0.05,meteohub,2013-02-20 12:27:00,
2013-02-20 07:32:00,25.7,17.6,29.06,ENE,68,0.0,3.0,71,0.00,,,0.05,meteohub,2013-02-20 12:32:00,
2013-02-20 07:37:00,25.7,17.6,29.06,SSW,207,0.0,3.0,71,0.00,,,0.05,meteohub,2013-02-20 12:37:00,
2013-02-20 07:42:00,25.9,17.1,29.06,West,276,0.0,4.0,69,0.00,,,0.05,meteohub,2013-02-20 12:42:00,
2013-02-20 07:47:00,26.1,17.2,29.06,North,1,0.0,4.0,69,0.00,,,0.05,meteohub,2013-02-20 12:47:00,
2013-02-20 07:52:00,26.1,17.2,29.06,SE,126,3.0,4.0,69,0.00,,,0.05,meteohub,2013-02-20 12:52:00,
2013-02-20 07:57:00,26.2,17.4,29.07,ESE,108,1.0,3.0,69,0.00,,,0.05,meteohub,2013-02-20 12:57:00,
2013-02-20 08:02:00,26.4,17.6,29.07,East,90,0.0,5.0,69,0.00,,,0.05,meteohub,2013-02-20 13:02:00,
2013-02-20 08:07:00,27.0,17.8,29.07,North,353,0.0,5.0,68,0.00,,,0.05,meteohub,2013-02-20 13:07:00,
2013-02-20 08:12:00,27.3,17.4,29.07,NW,326,0.0,4.0,66,0.00,,,0.05,meteohub,2013-02-20 13:12:00,
2013-02-20 08:17:00,28.0,17.8,29.07,SE,132,0.0,5.0,65,0.00,,,0.05,meteohub,2013-02-20 13:17:00,
2013-02-20 08:22:00,28.8,18.5,29.07,NNE,20,3.0,5.0,65,0.00,,,0.05,meteohub,2013-02-20 13:22:00,
2013-02-20 08:27:00,29.1,18.9,29.07,SSE,167,1.0,5.0,65,0.00,,,0.05,meteohub,2013-02-20 13:27:00,
2013-02-20 08:32:00,29.5,18.9,29.07,SSE,159,1.0,6.0,64,0.00,,,0.05,meteohub,2013-02-20 13:32:00,
2013-02-20 08:37:00,30.0,19.0,29.07,SE,144,1.0,6.0,63,0.00,,,0.05,meteohub,2013-02-20 13:37:00,
2013-02-20 08:42:00,30.4,18.9,29.07,ESE,103,1.0,9.0,62,0.00,,,0.05,meteohub,2013-02-20 13:42:00,
2013-02-20 08:47:00,30.9,18.7,29.07,NNE,15,2.0,9.0,60,0.00,,,0.05,meteohub,2013-02-20 13:47:00,
2013-02-20 08:52:00,31.3,18.7,29.07,SE,139,0.0,9.0,59,0.00,,,0.05,meteohub,2013-02-20 13:52:00,
2013-02-20 08:57:00,31.5,18.9,29.07,SW,218,2.0,6.0,59,0.00,,,0.05,meteohub,2013-02-20 13:57:00,
2013-02-20 09:02:00,31.6,18.5,29.07,ENE,77,2.0,6.0,58,0.00,,,0.05,meteohub,2013-02-20 14:02:00,
2013-02-20 09:07:00,31.8,18.7,29.06,SE,139,0.0,5.0,58,0.00,,,0.05,meteohub,2013-02-20 14:07:00,
2013-02-20 09:12:00,32.0,18.5,29.06,SSW,204,5.0,5.0,57,0.00,,,0.05,meteohub,2013-02-20 14:12:00,
2013-02-20 09:17:00,31.8,18.0,29.06,NW,312,2.0,5.0,56,0.00,,,0.05,meteohub,2013-02-20 14:17:00,
2013-02-20 09:22:00,31.5,16.7,29.06,SE,124,3.0,5.0,54,0.00,,,0.05,meteohub,2013-02-20 14:22:00,
2013-02-20 09:27:00,30.7,16.9,29.07,East,80,2.0,6.0,56,0.00,,,0.05,meteohub,2013-02-20 14:27:00,
2013-02-20 09:32:00,30.6,17.1,29.07,ENE,73,2.0,6.0,57,0.00,,,0.05,meteohub,2013-02-20 14:32:00,
2013-02-20 09:37:00,30.7,17.2,29.07,NW,305,2.0,6.0,57,0.00,,,0.05,meteohub,2013-02-20 14:37:00,
2013-02-20 09:42:00,30.7,16.5,29.07,NE,46,1.0,5.0,55,0.00,,,0.05,meteohub,2013-02-20 14:42:00,
2013-02-20 09:47:00,30.7,16.0,29.06,ESE,105,2.0,7.0,54,0.00,,,0.05,meteohub,2013-02-20 14:47:00,
2013-02-20 09:52:00,31.5,17.2,29.07,WNW,302,2.0,7.0,55,0.00,,,0.05,meteohub,2013-02-20 14:52:00,
2013-02-20 09:57:00,31.6,17.2,29.07,East,84,1.0,8.0,55,0.00,,,0.05,meteohub,2013-02-20 14:57:00,
2013-02-20 10:02:00,31.8,17.1,29.07,SSW,209,3.0,8.0,54,0.00,,,0.05,meteohub,2013-02-20 15:02:00,
2013-02-20 10:07:00,31.6,18.1,29.07,NW,320,1.0,8.0,57,0.00,,,0.05,meteohub,2013-02-20 15:07:00,
2013-02-20 10:12:00,31.8,17.1,29.08,East,91,0.0,5.0,54,0.00,,,0.05,meteohub,2013-02-20 15:12:00,
2013-02-20 10:17:00,32.5,16.9,29.08,NW,307,2.0,6.0,52,0.00,,,0.05,meteohub,2013-02-20 15:17:00,
2013-02-20 10:22:00,32.5,17.2,29.08,ENE,74,2.0,6.0,53,0.00,,,0.05,meteohub,2013-02-20 15:22:00,
2013-02-20 10:27:00,33.3,19.2,29.08,East,87,1.0,6.0,56,0.00,,,0.05,meteohub,2013-02-20 15:27:00,
2013-02-20 10:32:00,33.4,17.8,29.08,NNW,332,2.0,5.0,52,0.00,,,0.05,meteohub,2013-02-20 15:32:00,
2013-02-20 10:37:00,33.6,17.8,29.08,East,79,3.0,4.0,52,0.00,,,0.05,meteohub,2013-02-20 15:37:00,
2013-02-20 10:42:00,33.6,17.8,29.08,SSE,158,2.0,4.0,52,0.00,,,0.05,meteohub,2013-02-20 15:42:00,
2013-02-20 10:47:00,33.4,17.8,29.08,SW,221,1.0,6.0,52,0.00,,,0.05,meteohub,2013-02-20 15:47:00,
2013-02-20 10:52:00,33.4,17.2,29.08,SSW,193,3.0,6.0,51,0.00,,,0.05,meteohub,2013-02-20 15:52:00,
2013-02-20 10:57:00,32.4,16.7,29.08,East,97,0.0,6.0,52,0.00,,,0.05,meteohub,2013-02-20 15:57:00,
2013-02-20 11:02:00,31.5,16.7,29.08,WSW,238,0.0,6.0,54,0.00,,,0.05,meteohub,2013-02-20 16:02:00,
2013-02-20 11:07:00,30.7,16.5,29.08,SSE,149,1.0,6.0,55,0.00,,,0.05,meteohub,2013-02-20 16:07:00,
2013-02-20 11:12:00,30.4,16.2,29.08,North,352,0.0,7.0,55,0.00,,,0.05,meteohub,2013-02-20 16:12:00,
2013-02-20 11:17:00,30.4,17.1,29.08,SSE,165,1.0,7.0,57,0.00,,,0.05,meteohub,2013-02-20 16:17:00,
2013-02-20 11:22:00,30.2,16.3,29.08,NW,318,1.0,5.0,56,0.00,,,0.05,meteohub,2013-02-20 16:22:00,
2013-02-20 11:27:00,29.8,15.3,29.08,WNW,293,0.0,4.0,54,0.00,,,0.05,meteohub,2013-02-20 16:27:00,
2013-02-20 11:32:00,30.0,16.2,29.08,SW,226,0.0,4.0,56,0.00,,,0.05,meteohub,2013-02-20 16:32:00,
2013-02-20 11:37:00,29.7,15.8,29.08,SSW,200,3.0,6.0,56,0.00,,,0.05,meteohub,2013-02-20 16:37:00,
2013-02-20 11:42:00,29.5,16.2,29.07,ESE,105,0.0,9.0,57,0.00,,,0.05,meteohub,2013-02-20 16:42:00,
2013-02-20 11:47:00,29.5,16.2,29.07,ENE,65,1.0,9.0,57,0.00,,,0.05,meteohub,2013-02-20 16:47:00,
2013-02-20 11:52:00,29.3,15.1,29.07,ENE,68,1.0,7.0,55,0.00,,,0.05,meteohub,2013-02-20 16:52:00,
2013-02-20 11:57:00,29.1,15.4,29.07,ESE,115,2.0,5.0,56,0.00,,,0.05,meteohub,2013-02-20 16:57:00,
2013-02-20 12:02:00,28.9,16.0,29.07,WSW,249,1.0,5.0,58,0.00,,,0.05,meteohub,2013-02-20 17:02:00,
2013-02-20 12:07:00,28.9,14.7,29.07,SSE,166,0.0,4.0,55,0.00,,,0.05,meteohub,2013-02-20 17:07:00,
2013-02-20 12:12:00,28.9,14.7,29.07,South,184,1.0,5.0,55,0.00,,,0.05,meteohub,2013-02-20 17:12:00,
2013-02-20 12:17:00,28.9,15.6,29.06,East,99,0.0,5.0,57,0.00,,,0.05,meteohub,2013-02-20 17:17:00,
2013-02-20 12:22:00,28.9,16.0,29.06,NE,50,4.0,5.0,58,0.00,,,0.05,meteohub,2013-02-20 17:22:00,
2013-02-20 12:27:00,28.9,15.3,29.06,NE,41,0.0,4.0,56,0.00,,,0.05,meteohub,2013-02-20 17:27:00,
2013-02-20 12:32:00,29.1,16.2,29.06,ENE,76,1.0,5.0,58,0.00,,,0.05,meteohub,2013-02-20 17:32:00,
2013-02-20 12:37:00,29.5,16.9,29.06,ESE,110,1.0,5.0,59,0.00,,,0.05,meteohub,2013-02-20 17:37:00,
2013-02-20 12:42:00,29.8,17.2,29.06,NE,46,2.0,5.0,59,0.00,,,0.05,meteohub,2013-02-20 17:42:00,
2013-02-20 12:47:00,29.8,16.0,29.06,SE,145,0.0,4.0,56,0.00,,,0.05,meteohub,2013-02-20 17:47:00,
2013-02-20 12:52:00,30.0,16.2,29.05,WSW,253,1.0,4.0,56,0.00,,,0.05,meteohub,2013-02-20 17:52:00,
2013-02-20 12:57:00,29.8,15.6,29.06,SSE,153,3.0,4.0,55,0.00,,,0.05,meteohub,2013-02-20 17:57:00,
2013-02-20 13:02:00,29.7,15.4,29.05,NE,49,0.0,3.0,55,0.00,,,0.05,meteohub,2013-02-20 18:02:00,
2013-02-20 13:07:00,29.5,14.9,29.06,NNE,30,1.0,4.0,54,0.00,,,0.05,meteohub,2013-02-20 18:07:00,
2013-02-20 13:12:00,29.3,15.6,29.05,WSW,255,1.0,4.0,56,0.00,,,0.05,meteohub,2013-02-20 18:12:00,
2013-02-20 13:17:00,29.1,15.4,29.05,WNW,288,1.0,5.0,56,0.00,,,0.05,meteohub,2013-02-20 18:17:00,
2013-02-20 13:22:00,29.1,15.4,29.06,East,79,0.0,7.0,56,0.00,,,0.05,meteohub,2013-02-20 18:22:00,
2013-02-20 13:27:00,29.1,14.9,29.05,WNW,294,0.0,7.0,55,0.00,,,0.05,meteohub,2013-02-20 18:27:00,
2013-02-20 13:32:00,29.1,15.8,29.05,WSW,242,0.0,7.0,57,0.00,,,0.05,meteohub,2013-02-20 18:32:00,
2013-02-20 13:37:00,29.3,14.4,29.05,West,271,1.0,4.0,53,0.00,,,0.05,meteohub,2013-02-20 18:37:00,
2013-02-20 13:42:00,29.5,15.8,29.06,NNW,328,0.0,4.0,56,0.00,,,0.05,meteohub,2013-02-20 18:42:00,
2013-02-20 13:47:00,29.7,14.5,29.06,WNW,295,1.0,3.0,53,0.00,,,0.05,meteohub,2013-02-20 18:47:00,
2013-02-20 13:52:00,30.0,15.4,29.06,WNW,300,3.0,4.0,54,0.00,,,0.05,meteohub,2013-02-20 18:52:00,
2013-02-20 13:57:00,30.2,14.7,29.06,SSE,153,6.0,6.0,52,0.00,,,0.05,meteohub,2013-02-20 18:57:00,
2013-02-20 14:02:00,30.0,14.0,29.06,NE,36,0.0,6.0,51,0.00,,,0.05,meteohub,2013-02-20 19:02:00,
2013-02-20 14:07:00,29.7,14.2,29.06,NW,309,0.0,6.0,52,0.00,,,0.05,meteohub,2013-02-20 19:07:00,
2013-02-20 14:12:00,29.5,14.5,29.06,ENE,75,0.0,6.0,53,0.00,,,0.05,meteohub,2013-02-20 19:12:00,
2013-02-20 14:17:00,29.3,14.7,29.06,WSW,245,0.0,6.0,54,0.00,,,0.05,meteohub,2013-02-20 19:17:00,
2013-02-20 14:22:00,29.1,13.3,29.06,South,170,2.0,5.0,51,0.00,,,0.05,meteohub,2013-02-20 19:22:00,
2013-02-20 14:27:00,29.3,13.5,29.06,WNW,285,1.0,5.0,51,0.00,,,0.05,meteohub,2013-02-20 19:27:00,
2013-02-20 14:32:00,29.3,13.8,29.06,WSW,244,2.0,9.0,52,0.00,,,0.05,meteohub,2013-02-20 19:32:00,
2013-02-20 14:37:00,29.5,14.9,29.07,West,274,0.0,9.0,54,0.00,,,0.05,meteohub,2013-02-20 19:37:00,
2013-02-20 14:42:00,29.5,14.9,29.07,WNW,291,4.0,12.0,54,0.00,,,0.05,meteohub,2013-02-20 19:42:00,
2013-02-20 14:47:00,28.9,13.5,29.07,SW,217,1.0,12.0,52,0.00,,,0.05,meteohub,2013-02-20 19:47:00,
2013-02-20 14:52:00,28.8,14.2,29.07,NE,53,3.0,12.0,54,0.00,,,0.05,meteohub,2013-02-20 19:52:00,
2013-02-20 14:57:00,28.9,15.3,29.08,ENE,65,2.0,9.0,56,0.00,,,0.05,meteohub,2013-02-20 19:57:00,
2013-02-20 15:02:00,28.8,14.7,29.08,SSW,197,2.0,6.0,55,0.00,,,0.05,meteohub,2013-02-20 20:02:00,
2013-02-20 15:07:00,28.8,14.7,29.08,North,1,1.0,9.0,55,0.00,,,0.05,meteohub,2013-02-20 20:07:00,
2013-02-20 15:12:00,28.8,15.4,29.08,North,5,0.0,9.0,57,0.00,,,0.05,meteohub,2013-02-20 20:12:00,
2013-02-20 15:17:00,28.9,14.7,29.08,NW,314,2.0,9.0,55,0.00,,,0.05,meteohub,2013-02-20 20:17:00,
2013-02-20 15:22:00,28.6,14.5,29.08,ESE,113,0.0,4.0,55,0.00,,,0.05,meteohub,2013-02-20 20:22:00,
2013-02-20 15:27:00,28.4,15.4,29.08,SW,235,2.0,4.0,58,0.00,,,0.05,meteohub,2013-02-20 20:27:00,
2013-02-20 15:32:00,28.2,15.3,29.08,ENE,71,0.0,4.0,58,0.00,,,0.05,meteohub,2013-02-20 20:32:00,
2013-02-20 15:37:00,28.0,14.7,29.08,SSE,155,0.0,4.0,57,0.00,,,0.05,meteohub,2013-02-20 20:37:00,
2013-02-20 15:42:00,27.9,15.1,29.08,NNE,23,1.0,6.0,58,0.00,,,0.05,meteohub,2013-02-20 20:42:00,
2013-02-20 15:47:00,27.7,15.3,29.08,WNW,286,1.0,6.0,59,0.00,,,0.05,meteohub,2013-02-20 20:47:00,
2013-02-20 15:52:00,27.7,14.0,29.08,SSE,163,0.0,4.0,56,0.00,,,0.05,meteohub,2013-02-20 20:52:00,
2013-02-20 15:57:00,27.7,14.4,29.09,NW,315,0.0,5.0,57,0.00,,,0.05,meteohub,2013-02-20 20:57:00,
2013-02-20 16:02:00,27.9,15.1,29.09,SSW,205,0.0,5.0,58,0.00,,,0.05,meteohub,2013-02-20 21:02:00,
2013-02-20 16:07:00,28.0,16.0,29.09,NNE,31,1.0,5.0,60,0.00,,,0.05,meteohub,2013-02-20 21:07:00,
2013-02-20 16:12:00,28.0,16.3,29.10,NNE,18,1.0,8.0,61,0.00,,,0.05,meteohub,2013-02-20 21:12:00,
2013-02-20 16:17:00,27.9,15.8,29.10,NW,314,0.0,8.0,60,0.00,,,0.05,meteohub,2013-02-20 21:17:00,
2013-02-20 16:22:00,27.5,14.7,29.09,NW,312,1.0,8.0,58,0.00,,,0.05,meteohub,2013-02-20 21:22:00,
2013-02-20 16:27:00,27.1,14.7,29.09,South,190,0.0,5.0,59,0.00,,,0.05,meteohub,2013-02-20 21:27:00,
2013-02-20 16:32:00,27.0,14.5,29.10,WNW,293,0.0,7.0,59,0.00,,,0.05,meteohub,2013-02-20 21:32:00,
2013-02-20 16:37:00,26.8,15.4,29.10,ENE,76,2.0,7.0,62,0.00,,,0.05,meteohub,2013-02-20 21:37:00,
2013-02-20 16:42:00,26.8,15.4,29.10,ESE,116,1.0,6.0,62,0.00,,,0.05,meteohub,2013-02-20 21:42:00,
2013-02-20 16:47:00,26.4,15.1,29.10,East,97,1.0,4.0,62,0.00,,,0.05,meteohub,2013-02-20 21:47:00,
2013-02-20 16:52:00,26.2,14.5,29.10,SE,131,2.0,4.0,61,0.00,,,0.05,meteohub,2013-02-20 21:52:00,
2013-02-20 16:57:00,26.1,14.5,29.10,SW,215,1.0,7.0,61,0.00,,,0.05,meteohub,2013-02-20 21:57:00,
2013-02-20 17:02:00,25.9,14.7,29.10,WNW,298,0.0,7.0,62,0.00,,,0.05,meteohub,2013-02-20 22:02:00,
2013-02-20 17:07:00,25.9,14.4,29.11,ESE,116,0.0,7.0,61,0.00,,,0.05,meteohub,2013-02-20 22:07:00,
2013-02-20 17:12:00,25.7,13.8,29.10,WNW,283,1.0,7.0,60,0.00,,,0.05,meteohub,2013-02-20 22:12:00,
2013-02-20 17:17:00,25.5,13.1,29.11,WSW,243,1.0,8.0,59,0.00,,,0.05,meteohub,2013-02-20 22:17:00,
2013-02-20 17:22:00,25.5,12.7,29.12,NW,319,2.0,8.0,58,0.00,,,0.05,meteohub,2013-02-20 22:22:00,
2013-02-20 17:27:00,25.3,13.5,29.12,South,169,1.0,9.0,60,0.00,,,0.05,meteohub,2013-02-20 22:27:00,
2013-02-20 17:32:00,25.3,13.8,29.12,ENE,65,1.0,9.0,61,0.00,,,0.05,meteohub,2013-02-20 22:32:00,
2013-02-20 17:37:00,25.2,13.6,29.12,WNW,298,0.0,8.0,61,0.00,,,0.05,meteohub,2013-02-20 22:37:00,
2013-02-20 17:42:00,24.8,13.6,29.12,NE,38,3.0,8.0,62,0.00,,,0.05,meteohub,2013-02-20 22:42:00,
2013-02-20 17:47:00,24.6,13.5,29.12,ENE,72,0.0,7.0,62,0.00,,,0.05,meteohub,2013-02-20 22:47:00,
2013-02-20 17:52:00,24.4,12.2,29.12,ENE,63,0.0,5.0,59,0.00,,,0.05,meteohub,2013-02-20 22:52:00,
2013-02-20 17:57:00,24.3,12.0,29.13,SW,218,0.0,6.0,59,0.00,,,0.05,meteohub,2013-02-20 22:57:00,
2013-02-20 18:02:00,23.9,12.0,29.13,NE,49,0.0,6.0,60,0.00,,,0.05,meteohub,2013-02-20 23:02:00,
2013-02-20 18:07:00,23.7,11.8,29.13,ESE,105,0.0,6.0,60,0.00,,,0.05,meteohub,2013-02-20 23:07:00,
2013-02-20 18:12:00,23.4,11.8,29.13,SSE,153,0.0,2.0,61,0.00,,,0.05,meteohub,2013-02-20 23:12:00,
2013-02-20 18:17:00,23.2,11.3,29.13,ESE,121,0.0,2.0,60,0.00,,,0.05,meteohub,2013-02-20 23:17:00,
2013-02-20 18:22:00,23.2,11.3,29.13,ENE,57,0.0,1.0,60,0.00,,,0.05,meteohub,2013-02-20 23:22:00,
2013-02-20 18:28:00,23.0,11.1,29.13,ESE,110,0.0,2.0,60,0.00,,,0.05,meteohub,2013-02-20 23:28:00,
2013-02-20 18:33:00,22.8,10.6,29.14,ESE,116,1.0,2.0,59,0.00,,,0.05,meteohub,2013-02-20 23:33:00,
2013-02-20 18:38:00,23.0,10.8,29.14,NW,305,0.0,2.0,59,0.00,,,0.05,meteohub,2013-02-20 23:38:00,
2013-02-20 18:43:00,22.8,11.3,29.14,WSW,239,0.0,3.0,61,0.00,,,0.05,meteohub,2013-02-20 23:43:00,
2013-02-20 18:48:00,22.6,11.3,29.14,ENE,75,1.0,3.0,61,0.00,,,0.05,meteohub,2013-02-20 23:48:00,
2013-02-20 18:53:00,22.6,10.4,29.14,ENE,68,0.0,4.0,59,0.00,,,0.05,meteohub,2013-02-20 23:53:00,
2013-02-20 18:58:00,22.6,10.4,29.14,ENE,75,0.0,18.0,59,0.00,,,0.05,meteohub,2013-02-20 23:58:00,
2013-02-20 19:04:00,22.5,10.8,29.14,ENE,75,1.0,18.0,60,0.00,,,0.05,meteohub,2013-02-21 00:04:00,
2013-02-20 19:09:00,22.5,10.8,29.15,SSW,193,0.0,18.0,60,0.00,,,0.00,meteohub,2013-02-21 00:09:00,
2013-02-20 19:14:00,22.3,10.6,29.14,ENE,72,0.0,6.0,60,0.00,,,0.00,meteohub,2013-02-21 00:14:00,
2013-02-20 19:19:00,22.3,10.9,29.15,NNE,24,2.0,6.0,61,0.00,,,0.00,meteohub,2013-02-21 00:19:00,
2013-02-20 19:24:00,22.1,10.4,29.15,South,177,2.0,6.0,60,0.00,,,0.00,meteohub,2013-02-21 00:24:00,
2013-02-20 19:29:00,21.9,10.2,29.15,ENE,66,3.0,5.0,60,0.00,,,0.00,meteohub,2013-02-21 00:29:00,
2013-02-20 19:34:00,21.9,10.6,29.15,NE,54,2.0,5.0,61,0.00,,,0.00,meteohub,2013-02-21 00:34:00,
2013-02-20 19:39:00,21.9,10.2,29.15,NE,41,1.0,8.0,60,0.00,,,0.00,meteohub,2013-02-21 00:39:00,
2013-02-20 19:45:00,21.9,10.9,29.15,ENE,70,1.0,8.0,62,0.00,,,0.00,meteohub,2013-02-21 00:45:00,
2013-02-20 19:50:00,21.7,11.1,29.16,North,349,0.0,5.0,63,0.00,,,0.00,meteohub,2013-02-21 00:50:00,
2013-02-20 19:55:00,21.6,10.9,29.16,SSE,167,1.0,4.0,63,0.00,,,0.00,meteohub,2013-02-21 00:55:00,
2013-02-20 20:00:00,21.4,11.1,29.16,South,171,0.0,4.0,64,0.00,,,0.00,meteohub,2013-02-21 01:00:00,
2013-02-20 20:05:00,21.4,11.5,29.16,ESE,113,2.0,4.0,65,0.00,,,0.00,meteohub,2013-02-21 01:05:00,
2013-02-20 20:10:00,21.4,11.1,29.16,SSW,211,2.0,4.0,64,0.00,,,0.00,meteohub,2013-02-21 01:10:00,
2013-02-20 20:15:00,21.4,11.8,29.16,WNW,288,0.0,5.0,66,0.00,,,0.00,meteohub,2013-02-21 01:15:00,
2013-02-20 20:20:00,21.0,11.8,29.16,WSW,252,0.0,5.0,67,0.00,,,0.00,meteohub,2013-02-21 01:20:00,
2013-02-20 20:25:00,20.8,11.3,29.15,WSW,243,0.0,4.0,66,0.00,,,0.00,meteohub,2013-02-21 01:25:00,
2013-02-20 20:30:00,20.8,11.3,29.15,SSW,209,0.0,3.0,66,0.00,,,0.00,meteohub,2013-02-21 01:30:00,
2013-02-20 20:35:00,20.7,11.5,29.15,ENE,73,0.0,2.0,67,0.00,,,0.00,meteohub,2013-02-21 01:35:00,
2013-02-20 20:40:00,20.7,11.5,29.16,SSE,153,1.0,4.0,67,0.00,,,0.00,meteohub,2013-02-21 01:40:00,
2013-02-20 20:46:00,20.5,11.3,29.16,WNW,302,2.0,4.0,67,0.00,,,0.00,meteohub,2013-02-21 01:46:00,
2013-02-20 20:51:00,20.7,11.5,29.16,SW,215,3.0,4.0,67,0.00,,,0.00,meteohub,2013-02-21 01:51:00,
2013-02-20 20:56:00,20.7,11.1,29.16,SE,128,0.0,3.0,66,0.00,,,0.00,meteohub,2013-02-21 01:56:00,
2013-02-20 21:01:00,20.7,11.1,29.16,ENE,63,0.0,3.0,66,0.00,,,0.00,meteohub,2013-02-21 02:01:00,
2013-02-20 21:06:00,20.7,11.5,29.16,SSW,200,0.0,3.0,67,0.00,,,0.00,meteohub,2013-02-21 02:06:00,
2013-02-20 21:11:00,20.5,11.3,29.16,NE,44,1.0,3.0,67,0.00,,,0.00,meteohub,2013-02-21 02:11:00,
2013-02-20 21:16:00,20.7,11.5,29.16,South,179,1.0,5.0,67,0.00,,,0.00,meteohub,2013-02-21 02:16:00,
2013-02-20 21:21:00,20.7,11.1,29.16,SSE,167,0.0,7.0,66,0.00,,,0.00,meteohub,2013-02-21 02:21:00,
2013-02-20 21:26:00,20.5,11.3,29.17,South,181,3.0,7.0,67,0.00,,,0.00,meteohub,2013-02-21 02:26:00,
2013-02-20 21:32:00,20.5,11.7,29.17,NNE,23,1.0,7.0,68,0.00,,,0.00,meteohub,2013-02-21 02:32:00,
2013-02-20 21:37:00,20.3,11.1,29.17,NNW,347,0.0,4.0,67,0.00,,,0.00,meteohub,2013-02-21 02:37:00,
2013-02-20 21:42:00,20.3,11.5,29.17,SSW,203,0.0,4.0,68,0.00,,,0.00,meteohub,2013-02-21 02:42:00,
2013-02-20 21:47:00,20.1,11.3,29.17,SW,218,0.0,4.0,68,0.00,,,0.00,meteohub,2013-02-21 02:47:00,
2013-02-20 21:52:00,20.1,11.3,29.17,WNW,293,0.0,4.0,68,0.00,,,0.00,meteohub,2013-02-21 02:52:00,
2013-02-20 21:57:00,20.1,11.3,29.18,South,187,2.0,3.0,68,0.00,,,0.00,meteohub,2013-02-21 02:57:00,
2013-02-20 22:02:00,20.1,10.9,29.18,ENE,74,1.0,3.0,67,0.00,,,0.00,meteohub,2013-02-21 03:02:00,
2013-02-20 22:07:00,20.1,10.9,29.18,NE,49,0.0,3.0,67,0.00,,,0.00,meteohub,2013-02-21 03:07:00,
2013-02-20 22:12:00,20.1,10.9,29.18,South,184,1.0,6.0,67,0.00,,,0.00,meteohub,2013-02-21 03:12:00,
2013-02-20 22:17:00,20.1,11.3,29.18,SW,235,0.0,6.0,68,0.00,,,0.00,meteohub,2013-02-21 03:17:00,
2013-02-20 22:22:00,19.9,11.1,29.18,North,352,0.0,6.0,68,0.00,,,0.00,meteohub,2013-02-21 03:22:00,
2013-02-20 22:27:00,19.9,11.5,29.18,SSE,147,0.0,2.0,69,0.00,,,0.00,meteohub,2013-02-21 03:27:00,
2013-02-20 22:32:00,19.8,11.5,29.18,WNW,294,0.0,3.0,70,0.00,,,0.00,meteohub,2013-02-21 03:32:00,
2013-02-20 22:37:00,19.8,11.3,29.18,ESE,121,0.0,3.0,69,0.00,,,0.00,meteohub,2013-02-21 03:37:00,
2013-02-20 22:42:00,19.8,11.3,29.18,East,101,0.0,3.0,69,0.00,,,0.00,meteohub,2013-02-21 03:42:00,
2013-02-20 22:47:00,19.6,11.1,29.18,ESE,104,0.0,3.0,69,0.00,,,0.00,meteohub,2013-02-21 03:47:00,
2013-02-20 22:52:00,19.4,10.9,29.18,SW,219,0.0,2.0,69,0.00,,,0.00,meteohub,2013-02-21 03:52:00,
2013-02-20 22:58:00,19.2,11.1,29.19,WNW,285,1.0,1.0,70,0.00,,,0.00,meteohub,2013-02-21 03:58:00,
2013-02-20 23:03:00,19.2,11.3,29.19,West,273,1.0,2.0,71,0.00,,,0.00,meteohub,2013-02-21 04:03:00,
2013-02-20 23:08:00,19.0,11.5,29.19,SSW,206,0.0,2.0,72,0.00,,,0.00,meteohub,2013-02-21 04:08:00,
2013-02-20 23:13:00,19.0,11.5,29.19,SSW,206,0.0,2.0,72,0.00,,,0.00,meteohub,2013-02-21 04:13:00,
2013-02-20 23:18:00,19.0,11.1,29.19,SW,217,0.0,2.0,71,0.00,,,0.00,meteohub,2013-02-21 04:18:00,
2013-02-20 23:24:00,19.0,11.5,29.19,SSW,208,0.0,2.0,72,0.00,,,0.00,meteohub,2013-02-21 04:24:00,
2013-02-20 23:29:00,19.2,11.3,29.19,SSW,193,1.0,2.0,71,0.00,,,0.00,meteohub,2013-02-21 04:29:00,
2013-02-20 23:34:00,19.2,11.3,29.19,WNW,283,0.0,3.0,71,0.00,,,0.00,meteohub,2013-02-21 04:34:00,
2013-02-20 23:39:00,19.2,11.3,29.19,SSW,204,0.0,3.0,71,0.00,,,0.00,meteohub,2013-02-21 04:39:00,
2013-02-20 23:44:00,19.2,11.3,29.20,West,281,1.0,3.0,71,0.00,,,0.00,meteohub,2013-02-21 04:44:00,
2013-02-20 23:49:00,19.2,11.7,29.20,East,83,0.0,1.0,72,0.00,,,0.00,meteohub,2013-02-21 04:49:00,
2013-02-20 23:54:00,19.2,11.7,29.20,ESE,117,0.0,1.0,72,0.00,,,0.00,meteohub,2013-02-21 04:54:00,